TimeEDT,TemperatureF,Dew PointF,Humidity,Sea Level PressureIn,VisibilityMPH,Wind Direction,Wind SpeedMPH,Gust SpeedMPH,PrecipitationIn,Events,Conditions,WindDirDegrees,DateUTC
12:15 AM,80.6,73.4,79,30.08,10.0,SW,9.2,-,N/A,,Clear,230,2013-08-10 04:15:00
12:35 AM,80.6,73.4,79,30.08,10.0,SW,10.4,-,N/A,,Clear,220,2013-08-10 04:35:00
12:55 AM,80.6,73.4,79,30.08,10.0,SW,9.2,-,N/A,,Clear,220,2013-08-10 04:55:00
1:15 AM,78.8,73.4,83,30.08,10.0,SW,10.4,-,N/A,,Clear,220,2013-08-10 05:15:00
1:35 AM,78.8,71.6,78,30.07,10.0,SW,10.4,-,N/A,,Clear,220,2013-08-10 05:35:00
1:55 AM,78.8,71.6,78,30.07,10.0,SW,9.2,-,N/A,,Clear,220,2013-08-10 05:55:00
2:15 AM,78.8,71.6,78,30.08,10.0,SW,10.4,-,N/A,,Clear,230,2013-08-10 06:15:00
2:35 AM,78.8,71.6,78,30.08,10.0,SW,8.1,16.1,N/A,,Clear,220,2013-08-10 06:35:00
2:55 AM,78.8,71.6,78,30.08,10.0,SW,8.1,-,N/A,,Clear,230,2013-08-10 06:55:00
3:15 AM,77.0,71.6,83,30.08,10.0,SW,5.8,-,N/A,,Clear,230,2013-08-10 07:15:00
3:35 AM,77.0,71.6,83,30.08,10.0,SW,6.9,-,N/A,,Clear,220,2013-08-10 07:35:00
3:55 AM,77.0,73.4,89,30.08,10.0,SW,5.8,-,N/A,,Clear,230,2013-08-10 07:55:00
4:15 AM,77.0,71.6,83,30.07,10.0,SW,8.1,-,N/A,,Clear,220,2013-08-10 08:15:00
4:35 AM,77.0,71.6,83,30.07,10.0,SW,8.1,-,N/A,,Clear,230,2013-08-10 08:35:00
4:55 AM,77.0,71.6,83,30.07,10.0,SW,8.1,-,N/A,,Clear,230,2013-08-10 08:55:00
5:15 AM,77.0,71.6,83,30.07,10.0,SW,6.9,-,N/A,,Clear,220,2013-08-10 09:15:00
5:35 AM,77.0,71.6,83,30.07,10.0,SW,6.9,-,N/A,,Clear,220,2013-08-10 09:35:00
5:55 AM,77.0,71.6,83,30.07,10.0,SW,8.1,-,N/A,,Clear,230,2013-08-10 09:55:00
6:15 AM,77.0,71.6,83,30.08,10.0,SW,5.8,-,N/A,,Clear,220,2013-08-10 10:15:00
6:35 AM,77.0,71.6,83,30.08,10.0,SW,5.8,-,N/A,,Clear,220,2013-08-10 10:35:00
6:55 AM,77.0,71.6,83,30.09,10.0,SW,6.9,-,N/A,,Clear,220,2013-08-10 10:55:00
7:15 AM,77.0,71.6,83,30.09,10.0,SW,9.2,-,N/A,,Clear,230,2013-08-10 11:15:00
7:35 AM,77.0,71.6,83,30.09,10.0,SW,8.1,-,N/A,,Clear,230,2013-08-10 11:35:00
7:55 AM,78.8,71.6,78,30.09,10.0,SW,9.2,-,N/A,,Clear,230,2013-08-10 11:55:00
8:15 AM,78.8,73.4,83,30.09,10.0,WSW,9.2,-,N/A,,Clear,250,2013-08-10 12:15:00
8:35 AM,80.6,73.4,79,30.10,10.0,WSW,10.4,-,N/A,,Clear,240,2013-08-10 12:35:00
8:55 AM,80.6,73.4,79,30.10,10.0,West,11.5,-,N/A,,Clear,260,2013-08-10 12:55:00
9:15 AM,82.4,73.4,74,30.09,10.0,WSW,10.4,-,N/A,,Clear,250,2013-08-10 13:15:00
9:35 AM,84.2,73.4,70,30.09,10.0,WSW,9.2,-,N/A,,Clear,250,2013-08-10 13:35:00
9:55 AM,86.0,73.4,66,30.09,10.0,WSW,10.4,16.1,N/A,,Clear,240,2013-08-10 13:55:00
10:15 AM,86.0,75.2,70,30.10,10.0,WSW,9.2,-,N/A,,Mostly Cloudy,250,2013-08-10 14:15:00
10:35 AM,87.8,75.2,66,30.10,10.0,WSW,8.1,-,N/A,,Scattered Clouds,250,2013-08-10 14:35:00
10:55 AM,87.8,75.2,66,30.10,10.0,West,9.2,-,N/A,,Clear,260,2013-08-10 14:55:00
11:15 AM,89.6,77.0,66,30.09,10.0,West,6.9,-,N/A,,Clear,270,2013-08-10 15:15:00
11:35 AM,89.6,77.0,66,30.09,10.0,West,9.2,16.1,N/A,,Scattered Clouds,270,2013-08-10 15:35:00
11:55 AM,89.6,75.2,62,30.09,10.0,West,8.1,-,N/A,,Scattered Clouds,270,2013-08-10 15:55:00
12:15 PM,91.4,75.2,59,30.09,10.0,WSW,9.2,16.1,N/A,,Scattered Clouds,250,2013-08-10 16:15:00
12:35 PM,91.4,75.2,59,30.08,10.0,West,9.2,-,N/A,,Mostly Cloudy,260,2013-08-10 16:35:00
12:55 PM,91.4,75.2,59,30.07,10.0,WSW,10.4,17.3,N/A,,Scattered Clouds,250,2013-08-10 16:55:00
1:15 PM,93.2,75.2,56,30.07,10.0,West,9.2,-,N/A,,Scattered Clouds,270,2013-08-10 17:15:00
1:35 PM,93.2,75.2,56,30.06,10.0,WSW,12.7,-,N/A,,Scattered Clouds,240,2013-08-10 17:35:00
1:55 PM,93.2,75.2,56,30.06,10.0,WSW,11.5,-,N/A,,Scattered Clouds,250,2013-08-10 17:55:00
2:15 PM,91.4,73.4,55,30.06,10.0,West,5.8,-,N/A,,Mostly Cloudy,280,2013-08-10 18:15:00
2:35 PM,93.2,75.2,56,30.05,10.0,WSW,9.2,-,N/A,,Scattered Clouds,250,2013-08-10 18:35:00
2:55 PM,95.0,75.2,53,30.04,10.0,WSW,9.2,-,N/A,,Scattered Clouds,240,2013-08-10 18:55:00
3:15 PM,95.0,73.4,49,30.03,10.0,West,6.9,10.4,N/A,,Clear,260,2013-08-10 19:15:00
3:35 PM,95.0,73.4,49,30.03,10.0,West,8.1,19.6,N/A,,Scattered Clouds,260,2013-08-10 19:35:00
3:55 PM,93.2,73.4,52,30.03,10.0,SW,10.4,-,N/A,,Mostly Cloudy,230,2013-08-10 19:55:00
4:15 PM,95.0,75.2,53,30.02,10.0,West,12.7,16.1,N/A,,Scattered Clouds,260,2013-08-10 20:15:00
4:35 PM,93.2,73.4,52,30.01,10.0,WSW,11.5,-,N/A,Thunderstorm,Scattered Clouds,240,2013-08-10 20:35:00
4:55 PM,95.0,73.4,49,30.01,10.0,WSW,9.2,-,N/A,Thunderstorm,Thunderstorm,250,2013-08-10 20:55:00
5:15 PM,93.2,73.4,52,30.01,10.0,WSW,10.4,-,N/A,,Clear,240,2013-08-10 21:15:00
5:35 PM,91.4,73.4,55,30.01,10.0,West,4.6,-,N/A,,Scattered Clouds,270,2013-08-10 21:35:00
5:55 PM,89.6,75.2,62,30.02,10.0,NNW,10.4,-,N/A,,Mostly Cloudy,340,2013-08-10 21:55:00
6:15 PM,89.6,75.2,62,30.01,10.0,NW,4.6,-,N/A,,Scattered Clouds,310,2013-08-10 22:15:00
6:35 PM,87.8,75.2,66,30.02,10.0,NNW,4.6,-,N/A,Thunderstorm,Scattered Clouds,340,2013-08-10 22:35:00
6:55 PM,86.0,77.0,74,30.03,10.0,NNW,3.5,-,N/A,Thunderstorm,Scattered Clouds,340,2013-08-10 22:55:00
7:15 PM,86.0,75.2,70,30.08,10.0,NW,13.8,21.9,N/A,Thunderstorm,Mostly Cloudy,320,2013-08-10 23:15:00
7:35 PM,77.0,71.6,83,30.07,10.0,NNW,9.2,18.4,N/A,Rain,Light Rain,340,2013-08-10 23:35:00
7:55 PM,75.2,71.6,89,30.09,10.0,WSW,4.6,-,0.01,Rain,Light Rain,250,2013-08-10 23:55:00
8:15 PM,73.4,71.6,94,30.09,10.0,West,4.6,-,N/A,Rain-Thunderstorm,Light Thunderstorms and Rain,280,2013-08-11 00:15:00
8:35 PM,73.4,71.6,94,30.08,10.0,WNW,3.5,-,N/A,Rain-Thunderstorm,Light Thunderstorms and Rain,300,2013-08-11 00:35:00
8:55 PM,73.4,71.6,94,30.08,10.0,Calm,Calm,-,N/A,Rain,Light Rain,0,2013-08-11 00:55:00
9:15 PM,73.4,71.6,94,30.10,10.0,ESE,3.5,-,N/A,Rain,Light Rain,110,2013-08-11 01:15:00
9:35 PM,73.4,73.4,100,30.10,10.0,East,5.8,-,N/A,Rain,Light Rain,90,2013-08-11 01:35:00
9:55 PM,73.4,73.4,100,30.13,10.0,SW,4.6,-,N/A,,Clear,220,2013-08-11 01:55:00
10:15 PM,73.4,73.4,100,30.13,10.0,Calm,Calm,-,0.01,,Clear,0,2013-08-11 02:15:00
10:35 PM,73.4,73.4,100,30.13,10.0,SSE,5.8,-,0.01,,Clear,150,2013-08-11 02:35:00
10:55 PM,73.4,73.4,100,30.13,10.0,SSE,4.6,-,0.01,Thunderstorm,Clear,150,2013-08-11 02:55:00
11:15 PM,73.4,73.4,100,30.12,10.0,South,4.6,-,N/A,,Clear,190,2013-08-11 03:15:00
11:35 PM,73.4,73.4,100,30.12,10.0,SSW,4.6,-,N/A,,Clear,210,2013-08-11 03:35:00
11:55 PM,73.4,71.6,94,30.11,10.0,SSW,3.5,-,N/A,,Clear,200,2013-08-11 03:55:00